Tracking 25612 objects as of 20-May-2022
HD Live streaming from Space Station
objects crossing your sky now

HAWK-2C

Track HAWK-2C now!
10-day predictions


NORAD ID: 47502
Int'l Code: 2021-006CT
Perigee: 525.9 km
Apogee: 541.0 km
Inclination: 97.4 °
Period: 95.2 minutes
Semi major axis: 6904 km
RCS: Unknown
Launch date: January 24, 2021
Source: United States (US)
Launch site: AIR FORCE EASTERN TEST RANGE (AFETR)
aabbcc
Your satellite tracking list
Your tracking list is empty




NASA's NSSDC Master Catalog

Two Line Element Set (TLE):
1 47502U 21006CT  22139.52493010  .00005429  00000-0  30863-3 0  9991
2 47502  97.4394 198.3406 0010997  37.1016 323.0973 15.13244681 72844
Source of the keplerian elements: AFSPC